+ View the NASA Portal
+ Center for Near-Earth Object Studies
IMPORTANT:
The SSD Announcement email list is now available. Major changes are coming in the near future, including possible hostname and/or URL changes. To be notified of such changes, subscribe to this email list.
Please visit
this page
for more details.
Don't show this message again
JPL Small-Body Database Browser
Search:
[
help
]
117489 (2005 CB16)
Classification:
Main-belt Asteroid
SPK-ID:
2117489
[
Ephemeris
|
Orbit Diagram
|
Orbital Elements
|
Mission Design
|
Physical Parameters
|
Discovery Circumstances
]
[ show orbit diagram ]
Orbital Elements at Epoch 2458600.5 (2019-Apr-27.0) TDB
Reference:
JPL 15
(heliocentric ecliptic J2000)
Element
Value
Uncertainty (1-sigma)
Units
e
.06676409365444957
4.8299e-08
a
2.58715351401911
1.8008e-08
au
q
2.414424554510699
1.2702e-07
au
i
1.518520592673257
5.5273e-06
deg
node
208.0444598197549
0.000195
deg
peri
232.1022102310282
0.00019899
deg
M
198.727423058335
4.0908e-05
deg
t
p
2459281.410059702751
(2021-Mar-07.91005970)
0.00017375
TDB
period
1519.95848359053
4.16
1.587e-05
4.345e-08
d
yr
n
.236848574409472
2.4729e-09
deg/d
Q
2.75988247352752
1.9211e-08
au
Orbit Determination Parameters
# obs. used (total)
423
data-arc span
9205 days (25.20 yr)
first obs. used
1993-03-24
last obs. used
2018-06-06
planetary ephem.
DE431
SB-pert. ephem.
SB431-N16
condition code
0
norm. resid. RMS
.55906
source
ORB
producer
Otto Matic
solution date
2019-Jul-14 02:35:42
Additional Information
Earth MOID
= 1.43028 au
Jupiter MOID
= 2.38392 au
T_jup
= 3.418
[ show covariance matrix ]
[
Ephemeris
|
Orbit Diagram
|
Orbital Elements
|
Mission Design
|
Physical Parameters
|
Discovery Circumstances
]
Physical Parameter Table
Parameter
Symbol
Value
Units
Sigma
Reference
Notes
absolute magnitude
H
16.0
n/a
MPO432679
117489 (2005 CB16)
Discovered 2005-Feb-02 by LINEAR at Socorro
Reference:
20051019/Numbers.arc
Last Updated:
2005-10-26
[
Ephemeris
|
Orbit Diagram
|
Orbital Elements
|
Mission Design
|
Physical Parameters
|
Discovery Circumstances
]
2019-Dec-12 19:20 UT
(server date/time)
Site Manager:
Ryan S. Park
Webmaster
:
Alan B. Chamberlin